"Time","Value","Approval","myLocation"
"2023-05-07 00:00",8.31460305506903,"Approved","OW402"
"2023-05-07 01:00",8.31060336830235,"Approved","OW402"
"2023-05-07 02:00",8.30460368153568,"Approved","OW402"
"2023-05-07 03:00",8.298603994769,"Approved","OW402"
"2023-05-07 04:00",8.29360430800233,"Approved","OW402"
"2023-05-07 05:00",8.28760462123565,"Approved","OW402"
"2023-05-07 06:00",8.28460493446898,"Approved","OW402"
"2023-05-07 07:00",8.2806052477023,"Approved","OW402"
"2023-05-07 08:00",8.27560556093563,"Approved","OW402"
"2023-05-07 09:00",8.27160587416895,"Approved","OW402"
"2023-05-07 10:00",8.26460618740228,"Approved","OW402"
"2023-05-07 11:00",8.2586065006356,"Approved","OW402"
"2023-05-07 12:00",8.25260681386893,"Approved","OW402"
"2023-05-07 13:00",8.24760712710225,"Approved","OW402"
"2023-05-07 14:00",8.24460744033558,"Approved","OW402"
"2023-05-07 15:00",8.2426077535689,"Approved","OW402"
"2023-05-07 16:00",8.24360806680223,"Approved","OW402"
"2023-05-07 17:00",8.23960838003555,"Approved","OW402"
"2023-05-07 18:00",8.23660869326888,"Approved","OW402"
"2023-05-07 19:00",8.2346090065022,"Approved","OW402"
"2023-05-07 20:00",8.22960931973553,"Approved","OW402"
"2023-05-07 21:00",8.22560963296885,"Approved","OW402"
"2023-05-07 22:00",8.22160994620218,"Approved","OW402"
"2023-05-07 23:00",8.2146102594355,"Approved","OW402"
"2023-05-08 00:00",8.20661057266883,"Approved","OW402"
"2023-05-08 01:00",8.19961088590215,"Approved","OW402"
"2023-05-08 02:00",8.19161119913548,"Approved","OW402"
"2023-05-08 03:00",8.1836115123688,"Approved","OW402"
"2023-05-08 04:00",8.17761182560213,"Approved","OW402"
"2023-05-08 05:00",8.17061213883545,"Approved","OW402"
"2023-05-08 06:00",8.16461245206878,"Approved","OW402"
"2023-05-08 07:00",8.1586127653021,"Approved","OW402"
"2023-05-08 08:00",8.15261307853543,"Approved","OW402"
"2023-05-08 09:00",8.14861339176875,"Approved","OW402"
"2023-05-08 10:00",8.14261370500208,"Approved","OW402"
"2023-05-08 11:00",8.1376140182354,"Approved","OW402"
"2023-05-08 12:00",8.13261433146872,"Approved","OW402"
"2023-05-08 13:00",8.12761464470205,"Approved","OW402"
"2023-05-08 14:00",8.12461495793537,"Approved","OW402"
"2023-05-08 15:00",8.1226152711687,"Approved","OW402"
"2023-05-08 16:00",8.11961558440203,"Approved","OW402"
"2023-05-08 17:00",8.11761589763535,"Approved","OW402"
"2023-05-08 18:00",8.11461621086867,"Approved","OW402"
"2023-05-08 19:00",8.111616524102,"Approved","OW402"
"2023-05-08 20:00",8.10861683733532,"Approved","OW402"
"2023-05-08 21:00",8.10561715056865,"Approved","OW402"
"2023-05-08 22:00",8.10061746380197,"Approved","OW402"
"2023-05-08 23:00",8.0976177770353,"Approved","OW402"
"2023-05-09 00:00",8.09361809026862,"Approved","OW402"
"2023-05-09 01:00",8.08961840350195,"Approved","OW402"
"2023-05-09 02:00",8.08361871673527,"Approved","OW402"
"2023-05-09 03:00",8.0766190299686,"Approved","OW402"
"2023-05-09 04:00",8.07161934320192,"Approved","OW402"
"2023-05-09 05:00",8.06561965643525,"Approved","OW402"
"2023-05-09 06:00",8.06161996966857,"Approved","OW402"
"2023-05-09 07:00",8.0586202829019,"Approved","OW402"
"2023-05-09 08:00",8.05562059613522,"Approved","OW402"
"2023-05-09 09:00",8.05262090936855,"Approved","OW402"
"2023-05-09 10:00",8.05062122260187,"Approved","OW402"
"2023-05-09 11:00",8.0486215358352,"Approved","OW402"
"2023-05-09 12:00",8.04662184906852,"Approved","OW402"
"2023-05-09 13:00",8.04562216230185,"Approved","OW402"
"2023-05-09 14:00",8.04562247553517,"Approved","OW402"
"2023-05-09 15:00",8.0486227887685,"Approved","OW402"
"2023-05-09 16:00",8.04862310200182,"Approved","OW402"
"2023-05-09 17:00",8.04862341523515,"Approved","OW402"
"2023-05-09 18:00",8.04862372846847,"Approved","OW402"
"2023-05-09 19:00",8.0476240417018,"Approved","OW402"
"2023-05-09 20:00",8.04762435493512,"Approved","OW402"
"2023-05-09 21:00",8.04562466816845,"Approved","OW402"
"2023-05-09 22:00",8.04462498140177,"Approved","OW402"
"2023-05-09 23:00",8.04462529463509,"Approved","OW402"
"2023-05-10 00:00",8.04162560786842,"Approved","OW402"
"2023-05-10 01:00",8.04062592110175,"Approved","OW402"
"2023-05-10 02:00",8.03862623433507,"Approved","OW402"
"2023-05-10 03:00",8.0366265475684,"Approved","OW402"
"2023-05-10 04:00",8.03462686080172,"Approved","OW402"
"2023-05-10 05:00",8.03262717403505,"Approved","OW402"
"2023-05-10 06:00",8.03162748726837,"Approved","OW402"
"2023-05-10 07:00",8.0306278005017,"Approved","OW402"
"2023-05-10 08:00",8.02762811373502,"Approved","OW402"
"2023-05-10 09:00",8.02562842696834,"Approved","OW402"
"2023-05-10 10:00",8.02462874020167,"Approved","OW402"
"2023-05-10 11:00",8.02462905343499,"Approved","OW402"
"2023-05-10 12:00",8.02462936666832,"Approved","OW402"
"2023-05-10 13:00",8.02262967990165,"Approved","OW402"
"2023-05-10 14:00",8.02562999313497,"Approved","OW402"
"2023-05-10 15:00",8.02863030636829,"Approved","OW402"
"2023-05-10 16:00",8.03063061960162,"Approved","OW402"
"2023-05-10 17:00",8.03163093283494,"Approved","OW402"
"2023-05-10 18:00",8.03363124606827,"Approved","OW402"
"2023-05-10 19:00",8.0326315593016,"Approved","OW402"
"2023-05-10 20:00",8.03363187253492,"Approved","OW402"
"2023-05-10 21:00",8.03663218576824,"Approved","OW402"
"2023-05-10 22:00",8.03863249900157,"Approved","OW402"
"2023-05-10 23:00",8.03863281223489,"Approved","OW402"
"2023-05-11 00:00",8.03863312546822,"Approved","OW402"
"2023-05-11 01:00",8.03863343870154,"Approved","OW402"
"2023-05-11 02:00",8.03963375193487,"Approved","OW402"
"2023-05-11 03:00",8.03863406516819,"Approved","OW402"
"2023-05-11 04:00",8.03863437840152,"Approved","OW402"
"2023-05-11 05:00",8.03863469163484,"Approved","OW402"
"2023-05-11 06:00",8.03763500486817,"Approved","OW402"
"2023-05-11 07:00",8.03763531810149,"Approved","OW402"
"2023-05-11 08:00",8.03863563133482,"Approved","OW402"
"2023-05-11 09:00",8.03763594456814,"Approved","OW402"
"2023-05-11 10:00",8.03863625780147,"Approved","OW402"
"2023-05-11 11:00",8.03963657103479,"Approved","OW402"
"2023-05-11 12:00",8.04163688426812,"Approved","OW402"
"2023-05-11 13:00",8.04463719750144,"Approved","OW402"
"2023-05-11 14:00",8.04863751073477,"Approved","OW402"
"2023-05-11 15:00",8.05663782396809,"Approved","OW402"
"2023-05-11 16:00",8.06063813720142,"Approved","OW402"
"2023-05-11 17:00",8.06263845043474,"Approved","OW402"
"2023-05-11 18:00",8.06563876366807,"Approved","OW402"
"2023-05-11 19:00",8.06863907690139,"Approved","OW402"
"2023-05-11 20:00",8.07163939013472,"Approved","OW402"
"2023-05-11 21:00",8.07363970336804,"Approved","OW402"
"2023-05-11 22:00",8.07464001660137,"Approved","OW402"
"2023-05-11 23:00",8.07764032983469,"Approved","OW402"
"2023-05-12 00:00",8.08164064306802,"Approved","OW402"
"2023-05-12 01:00",8.08564095630134,"Approved","OW402"
"2023-05-12 02:00",8.08864126953467,"Approved","OW402"
"2023-05-12 03:00",8.09264158276799,"Approved","OW402"
"2023-05-12 04:00",8.09464189600132,"Approved","OW402"
"2023-05-12 05:00",8.09764220923464,"Approved","OW402"
"2023-05-12 06:00",8.09964252246797,"Approved","OW402"
"2023-05-12 07:00",8.10164283570129,"Approved","OW402"
"2023-05-12 08:00",8.10564314893461,"Approved","OW402"
"2023-05-12 09:00",8.10864346216794,"Approved","OW402"
"2023-05-12 10:00",8.11164377540126,"Approved","OW402"
"2023-05-12 11:00",8.11464408863459,"Approved","OW402"
"2023-05-12 12:00",8.11864440186792,"Approved","OW402"
"2023-05-12 13:00",8.12464471510124,"Approved","OW402"
"2023-05-12 14:00",8.13264502833457,"Approved","OW402"
"2023-05-12 15:00",8.14064534156789,"Approved","OW402"
"2023-05-12 16:00",8.14564565480121,"Approved","OW402"
"2023-05-12 17:00",8.15064596803454,"Approved","OW402"
"2023-05-12 18:00",8.15464628126786,"Approved","OW402"
"2023-05-12 19:00",8.15764659450119,"Approved","OW402"
"2023-05-12 20:00",8.16164690773451,"Approved","OW402"
"2023-05-12 21:00",8.16464722096784,"Approved","OW402"
"2023-05-12 22:00",8.16764753420116,"Approved","OW402"
"2023-05-12 23:00",8.17164784743449,"Approved","OW402"
"2023-05-13 00:00",8.17464816066781,"Approved","OW402"
"2023-05-13 01:00",8.17864847390114,"Approved","OW402"
"2023-05-13 02:00",8.18364878713446,"Approved","OW402"
"2023-05-13 03:00",8.18864910036779,"Approved","OW402"
"2023-05-13 04:00",8.19364941360111,"Approved","OW402"
"2023-05-13 05:00",8.19864972683444,"Approved","OW402"
"2023-05-13 06:00",8.20265004006776,"Approved","OW402"
"2023-05-13 07:00",8.20465035330109,"Approved","OW402"
"2023-05-13 08:00",8.20865066653441,"Approved","OW402"
"2023-05-13 09:00",8.21065097976774,"Approved","OW402"
"2023-05-13 10:00",8.21365129300106,"Approved","OW402"
"2023-05-13 11:00",8.21865160623439,"Approved","OW402"
"2023-05-13 12:00",8.22465191946771,"Approved","OW402"
"2023-05-13 13:00",8.22965223270104,"Approved","OW402"
"2023-05-13 14:00",8.23565254593436,"Approved","OW402"
"2023-05-13 15:00",8.24365285916769,"Approved","OW402"
"2023-05-13 16:00",8.24765317240101,"Approved","OW402"
"2023-05-13 17:00",8.25265348563434,"Approved","OW402"
"2023-05-13 18:00",8.25565379886766,"Approved","OW402"
"2023-05-13 19:00",8.25865411210099,"Approved","OW402"
"2023-05-13 20:00",8.26065442533431,"Approved","OW402"
"2023-05-13 21:00",8.26365473856764,"Approved","OW402"
"2023-05-13 22:00",8.26465505180096,"Approved","OW402"
"2023-05-13 23:00",8.26565536503429,"Approved","OW402"
"2023-05-14 00:00",8.26965567826761,"Approved","OW402"
"2023-05-14 01:00",8.27465599150094,"Approved","OW402"
"2023-05-14 02:00",8.27965630473426,"Approved","OW402"
"2023-05-14 03:00",8.28565661796759,"Approved","OW402"
"2023-05-14 04:00",8.29465693120091,"Approved","OW402"
"2023-05-14 05:00",8.29965724443424,"Approved","OW402"
"2023-05-14 06:00",8.30265755766756,"Approved","OW402"
"2023-05-14 07:00",8.30665787090089,"Approved","OW402"
"2023-05-14 08:00",8.30965818413421,"Approved","OW402"
"2023-05-14 09:00",8.31165849736754,"Approved","OW402"
"2023-05-14 10:00",8.31365881060086,"Approved","OW402"
"2023-05-14 11:00",8.31665912383418,"Approved","OW402"
"2023-05-14 12:00",8.31965943706751,"Approved","OW402"
"2023-05-14 13:00",8.32465975030084,"Approved","OW402"
"2023-05-14 14:00",8.32966006353416,"Approved","OW402"
"2023-05-14 15:00",8.33566037676748,"Approved","OW402"
"2023-05-14 16:00",8.34066069000081,"Approved","OW402"
"2023-05-14 17:00",8.34266100323413,"Approved","OW402"
"2023-05-14 18:00",8.34566131646746,"Approved","OW402"
"2023-05-14 19:00",8.34766162970078,"Approved","OW402"
"2023-05-14 20:00",8.35166194293411,"Approved","OW402"
"2023-05-14 21:00",8.35266225616743,"Approved","OW402"
"2023-05-14 22:00",8.35566256940076,"Approved","OW402"
"2023-05-14 23:00",8.35566288263408,"Approved","OW402"
"2023-05-15 00:00",8.35966319586741,"Approved","OW402"
"2023-05-15 01:00",8.36366350910073,"Approved","OW402"
"2023-05-15 02:00",8.36966382233406,"Approved","OW402"
"2023-05-15 03:00",8.37566413556738,"Approved","OW402"
"2023-05-15 04:00",8.38466444880071,"Approved","OW402"
"2023-05-15 05:00",8.39066476203403,"Approved","OW402"
"2023-05-15 06:00",8.39466507526736,"Approved","OW402"
"2023-05-15 07:00",8.39866538850068,"Approved","OW402"
"2023-05-15 08:00",8.40166570173401,"Approved","OW402"
"2023-05-15 09:00",8.40466601496733,"Approved","OW402"
"2023-05-15 10:00",8.40866632820066,"Approved","OW402"
"2023-05-15 11:00",8.41266664143398,"Approved","OW402"
"2023-05-15 12:00",8.41566695466731,"Approved","OW402"
"2023-05-15 13:00",8.42266726790063,"Approved","OW402"
"2023-05-15 14:00",8.42966758113396,"Approved","OW402"
"2023-05-15 15:00",8.43566789436728,"Approved","OW402"
"2023-05-15 16:00",8.44166820760061,"Approved","OW402"
"2023-05-15 17:00",8.44566852083393,"Approved","OW402"
"2023-05-15 18:00",8.44966883406726,"Approved","OW402"
"2023-05-15 19:00",8.45266914730058,"Approved","OW402"
"2023-05-15 20:00",8.45866946053391,"Approved","OW402"
"2023-05-15 21:00",8.46166977376723,"Approved","OW402"
"2023-05-15 22:00",8.46367008700056,"Approved","OW402"
"2023-05-15 23:00",8.46967040023388,"Approved","OW402"
"2023-05-16 00:00",8.47467071346721,"Approved","OW402"
"2023-05-16 01:00",8.47867102670053,"Approved","OW402"
"2023-05-16 02:00",8.48467133993386,"Approved","OW402"
"2023-05-16 03:00",8.49167165316718,"Approved","OW402"
"2023-05-16 04:00",8.4986719664005,"Approved","OW402"
"2023-05-16 05:00",8.50567227963383,"Approved","OW402"
"2023-05-16 06:00",8.51167259286716,"Approved","OW402"
"2023-05-16 07:00",8.51667290610048,"Approved","OW402"
"2023-05-16 08:00",8.5216732193338,"Approved","OW402"
"2023-05-16 09:00",8.52667353256713,"Approved","OW402"
"2023-05-16 10:00",8.53167384580045,"Approved","OW402"
"2023-05-16 11:00",8.53667415903378,"Approved","OW402"
"2023-05-16 12:00",8.54267447226711,"Approved","OW402"
"2023-05-16 13:00",8.54967478550043,"Approved","OW402"
"2023-05-16 14:00",8.55867509873375,"Approved","OW402"
"2023-05-16 15:00",8.56767541196708,"Approved","OW402"
"2023-05-16 16:00",8.5776757252004,"Approved","OW402"
"2023-05-16 17:00",8.58567603843373,"Approved","OW402"
"2023-05-16 18:00",8.59167635166705,"Approved","OW402"
"2023-05-16 19:00",8.59867666490038,"Approved","OW402"
"2023-05-16 20:00",8.6026769781337,"Approved","OW402"
"2023-05-16 21:00",8.60567729136703,"Approved","OW402"
"2023-05-16 22:00",8.60667760460035,"Approved","OW402"
"2023-05-16 23:00",8.61367791783368,"Approved","OW402"
"2023-05-17 00:00",8.617678231067,"Approved","OW402"
"2023-05-17 01:00",8.62167854430033,"Approved","OW402"
"2023-05-17 02:00",8.62867885753365,"Approved","OW402"
"2023-05-17 03:00",8.63367917076698,"Approved","OW402"
"2023-05-17 04:00",8.6386794840003,"Approved","OW402"
"2023-05-17 05:00",8.64767979723363,"Approved","OW402"
"2023-05-17 06:00",8.65468011046695,"Approved","OW402"
"2023-05-17 07:00",8.66168042370028,"Approved","OW402"
"2023-05-17 08:00",8.6666807369336,"Approved","OW402"
"2023-05-17 09:00",8.67168105016693,"Approved","OW402"
"2023-05-17 10:00",8.67568136340025,"Approved","OW402"
"2023-05-17 11:00",8.67968167663358,"Approved","OW402"
"2023-05-17 12:00",8.6866819898669,"Approved","OW402"
"2023-05-17 13:00",8.69268230310023,"Approved","OW402"
"2023-05-17 14:00",8.70168261633355,"Approved","OW402"
"2023-05-17 15:00",8.70968292956688,"Approved","OW402"
"2023-05-17 16:00",8.7176832428002,"Approved","OW402"
"2023-05-17 17:00",8.72368355603353,"Approved","OW402"
"2023-05-17 18:00",8.73068386926685,"Approved","OW402"
"2023-05-17 19:00",8.73468418250018,"Approved","OW402"
"2023-05-17 20:00",8.7396844957335,"Approved","OW402"
"2023-05-17 21:00",8.74168480896683,"Approved","OW402"
"2023-05-17 22:00",8.74468512220015,"Approved","OW402"
"2023-05-17 23:00",8.74768543543348,"Approved","OW402"
"2023-05-18 00:00",8.7516857486668,"Approved","OW402"
"2023-05-18 01:00",8.75568606190012,"Approved","OW402"
"2023-05-18 02:00",8.76168637513345,"Approved","OW402"
"2023-05-18 03:00",8.76968668836678,"Approved","OW402"
"2023-05-18 04:00",8.7776870016001,"Approved","OW402"
"2023-05-18 05:00",8.78568731483343,"Approved","OW402"
"2023-05-18 06:00",8.79168762806675,"Approved","OW402"
"2023-05-18 07:00",8.79968794130007,"Approved","OW402"
"2023-05-18 08:00",8.8076882545334,"Approved","OW402"
"2023-05-18 09:00",8.81368856776672,"Approved","OW402"
"2023-05-18 10:00",8.82168888100005,"Approved","OW402"
"2023-05-18 11:00",8.82668919423337,"Approved","OW402"
"2023-05-18 12:00",8.8346895074667,"Approved","OW402"
"2023-05-18 13:00",8.84168982070002,"Approved","OW402"
"2023-05-18 14:00",8.85069013393335,"Approved","OW402"
"2023-05-18 15:00",8.86169044716667,"Approved","OW402"
"2023-05-18 16:00",8.8706907604,"Approved","OW402"
"2023-05-18 17:00",8.87969107363332,"Approved","OW402"
"2023-05-18 18:00",8.88769138686665,"Approved","OW402"
"2023-05-18 19:00",8.89669170009997,"Approved","OW402"
"2023-05-18 20:00",8.9036920133333,"Approved","OW402"
"2023-05-18 21:00",8.91069232656662,"Approved","OW402"
"2023-05-18 22:00",8.91669263979995,"Approved","OW402"
"2023-05-18 23:00",8.92069295303327,"Approved","OW402"
"2023-05-19 00:00",8.9266932662666,"Approved","OW402"
"2023-05-19 01:00",8.93369357949992,"Approved","OW402"
"2023-05-19 02:00",8.93969389273325,"Approved","OW402"
"2023-05-19 03:00",8.94869420596657,"Approved","OW402"
"2023-05-19 04:00",8.9546945191999,"Approved","OW402"
"2023-05-19 05:00",8.96669483243322,"Approved","OW402"
"2023-05-19 06:00",8.97469514566655,"Approved","OW402"
"2023-05-19 07:00",8.98569545889987,"Approved","OW402"
"2023-05-19 08:00",8.9926957721332,"Approved","OW402"
"2023-05-19 09:00",8.99969608536652,"Approved","OW402"
"2023-05-19 10:00",9.00769639859985,"Approved","OW402"
"2023-05-19 11:00",9.01569671183317,"Approved","OW402"
"2023-05-19 12:00",9.0216970250665,"Approved","OW402"
"2023-05-19 13:00",9.02969733829982,"Approved","OW402"
"2023-05-19 14:00",9.03969765153315,"Approved","OW402"
"2023-05-19 15:00",9.05069796476647,"Approved","OW402"
"2023-05-19 16:00",9.0576982779998,"Approved","OW402"
"2023-05-19 17:00",9.06669859123312,"Approved","OW402"
"2023-05-19 18:00",9.07569890446645,"Approved","OW402"
"2023-05-19 19:00",9.08269921769977,"Approved","OW402"
"2023-05-19 20:00",9.08969953093309,"Approved","OW402"
"2023-05-19 21:00",9.09669984416642,"Approved","OW402"
"2023-05-19 22:00",9.10270015739975,"Approved","OW402"
"2023-05-19 23:00",9.10670047063307,"Approved","OW402"
"2023-05-20 00:00",9.1137007838664,"Approved","OW402"
"2023-05-20 01:00",9.11670109709972,"Approved","OW402"
"2023-05-20 02:00",9.12270141033305,"Approved","OW402"
"2023-05-20 03:00",9.12770172356637,"Approved","OW402"
"2023-05-20 04:00",9.1397020367997,"Approved","OW402"
"2023-05-20 05:00",9.14970235003302,"Approved","OW402"
"2023-05-20 06:00",9.15670266326634,"Approved","OW402"
"2023-05-20 07:00",9.16570297649967,"Approved","OW402"
"2023-05-20 08:00",9.17370328973299,"Approved","OW402"
"2023-05-20 09:00",9.18070360296632,"Approved","OW402"
"2023-05-20 10:00",9.18770391619964,"Approved","OW402"
"2023-05-20 11:00",9.19570422943297,"Approved","OW402"
"2023-05-20 12:00",9.20270454266629,"Approved","OW402"
"2023-05-20 13:00",9.20970485589962,"Approved","OW402"
"2023-05-20 14:00",9.21870516913294,"Approved","OW402"
"2023-05-20 15:00",9.22870548236627,"Approved","OW402"
"2023-05-20 16:00",9.23670579559959,"Approved","OW402"
"2023-05-20 17:00",9.24370610883292,"Approved","OW402"
"2023-05-20 18:00",9.25270642206624,"Approved","OW402"
"2023-05-20 19:00",9.25970673529957,"Approved","OW402"
"2023-05-20 20:00",9.26670704853289,"Approved","OW402"
"2023-05-20 21:00",9.27370736176622,"Approved","OW402"
"2023-05-20 22:00",9.27570767499954,"Approved","OW402"
"2023-05-20 23:00",9.28070798823287,"Approved","OW402"
"2023-05-21 00:00",9.28670830146619,"Approved","OW402"
"2023-05-21 01:00",9.29470861469952,"Approved","OW402"
"2023-05-21 02:00",9.30370892793284,"Approved","OW402"
"2023-05-21 03:00",9.31070924116617,"Approved","OW402"
"2023-05-21 04:00",9.31870955439949,"Approved","OW402"
"2023-05-21 05:00",9.32670986763282,"Approved","OW402"
"2023-05-21 06:00",9.33571018086614,"Approved","OW402"
"2023-05-21 07:00",9.34171049409947,"Approved","OW402"
"2023-05-21 08:00",9.34671080733279,"Approved","OW402"
"2023-05-21 09:00",9.35371112056612,"Approved","OW402"
"2023-05-21 10:00",9.35871143379944,"Approved","OW402"
"2023-05-21 11:00",9.36671174703277,"Approved","OW402"
"2023-05-21 12:00",9.37671206026609,"Approved","OW402"
"2023-05-21 13:00",9.38471237349941,"Approved","OW402"
"2023-05-21 14:00",9.39171268673274,"Approved","OW402"
"2023-05-21 15:00",9.39871299996607,"Approved","OW402"
"2023-05-21 16:00",9.40871331319939,"Approved","OW402"
"2023-05-21 17:00",9.41971362643272,"Approved","OW402"
"2023-05-21 18:00",9.42671393966604,"Approved","OW402"
"2023-05-21 19:00",9.43371425289937,"Approved","OW402"
"2023-05-21 20:00",9.43971456613269,"Approved","OW402"
"2023-05-21 21:00",9.44571487936602,"Approved","OW402"
"2023-05-21 22:00",9.45171519259934,"Approved","OW402"
"2023-05-21 23:00",9.45871550583267,"Approved","OW402"
"2023-05-22 00:00",9.46271581906599,"Approved","OW402"
"2023-05-22 01:00",9.46971613229931,"Approved","OW402"
"2023-05-22 02:00",9.47271644553264,"Approved","OW402"
"2023-05-22 03:00",9.47971675876597,"Approved","OW402"
"2023-05-22 04:00",9.48371707199929,"Approved","OW402"
"2023-05-22 05:00",9.49571738523261,"Approved","OW402"
"2023-05-22 06:00",9.49671769846594,"Approved","OW402"
"2023-05-22 07:00",9.50271801169926,"Approved","OW402"
"2023-05-22 08:00",9.50971832493259,"Approved","OW402"
"2023-05-22 09:00",9.51771863816592,"Approved","OW402"
"2023-05-22 10:00",9.52771895139924,"Approved","OW402"
"2023-05-22 11:00",9.53471926463256,"Approved","OW402"
"2023-05-22 12:00",9.54271957786589,"Approved","OW402"
"2023-05-22 13:00",9.54971989109921,"Approved","OW402"
"2023-05-22 14:00",9.55972020433254,"Approved","OW402"
"2023-05-22 15:00",9.56872051756586,"Approved","OW402"
"2023-05-22 16:00",9.57972083079919,"Approved","OW402"
"2023-05-22 17:00",9.58772114403251,"Approved","OW402"
"2023-05-22 18:00",9.59972145726584,"Approved","OW402"
"2023-05-22 19:00",9.61072177049916,"Approved","OW402"
"2023-05-22 20:00",9.62072208373249,"Approved","OW402"
"2023-05-22 21:00",9.63172239696581,"Approved","OW402"
"2023-05-22 22:00",9.64172271019914,"Approved","OW402"
"2023-05-22 23:00",9.65072302343246,"Approved","OW402"
"2023-05-23 00:00",9.65872333666579,"Approved","OW402"
"2023-05-23 01:00",9.66372364989911,"Approved","OW402"
"2023-05-23 02:00",9.66872396313244,"Approved","OW402"
"2023-05-23 03:00",9.67672427636576,"Approved","OW402"
"2023-05-23 04:00",9.68372458959909,"Approved","OW402"
"2023-05-23 05:00",9.68972490283241,"Approved","OW402"
"2023-05-23 06:00",9.69772521606574,"Approved","OW402"
"2023-05-23 07:00",9.70472552929906,"Approved","OW402"
"2023-05-23 08:00",9.71372584253239,"Approved","OW402"
"2023-05-23 09:00",9.72072615576571,"Approved","OW402"
"2023-05-23 10:00",9.72872646899904,"Approved","OW402"
"2023-05-23 11:00",9.73672678223236,"Approved","OW402"
"2023-05-23 12:00",9.74572709546569,"Approved","OW402"
"2023-05-23 13:00",9.75272740869901,"Approved","OW402"
"2023-05-23 14:00",9.76172772193234,"Approved","OW402"
"2023-05-23 15:00",9.77372803516566,"Approved","OW402"
"2023-05-23 16:00",9.78372834839899,"Approved","OW402"
"2023-05-23 17:00",9.79272866163231,"Approved","OW402"
"2023-05-23 18:00",9.80272897486564,"Approved","OW402"
"2023-05-23 19:00",9.81072928809896,"Approved","OW402"
"2023-05-23 20:00",9.81972960133229,"Approved","OW402"
"2023-05-23 21:00",9.82772991456561,"Approved","OW402"
"2023-05-23 22:00",9.83473022779894,"Approved","OW402"
"2023-05-23 23:00",9.84273054103226,"Approved","OW402"
"2023-05-24 00:00",9.84973085426559,"Approved","OW402"
"2023-05-24 01:00",9.85673116749891,"Approved","OW402"
"2023-05-24 02:00",9.86373148073224,"Approved","OW402"
"2023-05-24 03:00",9.87173179396556,"Approved","OW402"
"2023-05-24 04:00",9.87873210719889,"Approved","OW402"
"2023-05-24 05:00",9.88773242043221,"Approved","OW402"
"2023-05-24 06:00",9.89373273366553,"Approved","OW402"
"2023-05-24 07:00",9.90073304689886,"Approved","OW402"
"2023-05-24 08:00",9.90673336013218,"Approved","OW402"
"2023-05-24 09:00",9.91273367336551,"Approved","OW402"
"2023-05-24 10:00",9.92073398659883,"Approved","OW402"
"2023-05-24 11:00",9.92973429983216,"Approved","OW402"
"2023-05-24 12:00",9.93673461306548,"Approved","OW402"
"2023-05-24 13:00",9.94573492629881,"Approved","OW402"
"2023-05-24 14:00",9.95473523953213,"Approved","OW402"
"2023-05-24 15:00",9.96573555276546,"Approved","OW402"
"2023-05-24 16:00",9.97273586599878,"Approved","OW402"
"2023-05-24 17:00",9.98173617923211,"Approved","OW402"
"2023-05-24 18:00",9.98973649246543,"Approved","OW402"
"2023-05-24 19:00",9.99873680569876,"Approved","OW402"